Mukilteo, WA

10:10 PM PST on January 16, 2017 (GMT -0800)
Snohomish County

Weather History for KPAE - December, 2012

Change the Weather History Date:

Sunday, December 23, 2012

  Actual Average Record
Temperature  
Mean Temperature 41 °F -  
Max Temperature 45 °F 42 °F 54 °F (1950)
Min Temperature 37 °F 33 °F 6 °F (1983)
Degree Days  
Heating Degree Days 24    
Moisture  
Dew Point 35 °F    
Average Humidity 82    
Maximum Humidity 93    
Minimum Humidity 63    
Precipitation  
Precipitation 0.35 in - - ()
Sea Level Pressure  
Sea Level Pressure 29.71 in    
Wind  
Wind Speed 4 mph (South)    
Max Wind Speed 10 mph    
Max Gust Speed -    
Visibility 8 miles    
Events Rain    
Averages and records for this station are not official NWS values.
T = Trace of Precipitation, MM = Missing Value Source: NWS Daily Summary

Daily Weather History Graph

Daily Weather History Graph

Search for Another Location

Airport or City:

Trip Planner

Search our weather history database for the weather conditions in past years. The results will help you decide how hot, cold, wet, or windy it might be!

Date:

Astronomy

Dec. 23, 2012 Rise Set
Actual Time 7:56 AM PST 4:20 PM PST
Civil Twilight 7:20 AM PST 4:56 PM PST
Nautical Twilight 6:41 AM PST 5:36 PM PST
Astronomical Twilight 6:03 AM PST 6:13 PM PST
Moon 1:22 PM PST (12/23) 3:35 AM PST (12/23)
Length of Visible Light 9h 35m
Length of Day
8h 23m
Waxing Gibbous, 82% of the Moon is Illuminated
Dec 23
Waxing Gibbous
Dec 28
Full
Jan 4
Last Quarter
Jan 11
New
Jan 18
First Quarter

Hourly Weather History & Observations

Time (PST) Temp. Windchill Dew Point Humidity Pressure Visibility Wind Dir Wind Speed Gust Speed Precip Events Conditions
12:53 AM 41.0 °F 36.4 °F 36.0 °F 82% 29.75 in 10.0 mi SSE 6.9 mph - 0.01 in   Overcast
1:53 AM 41.0 °F 38.0 °F 35.1 °F 79% 29.75 in 10.0 mi SSE 4.6 mph - N/A   Overcast
2:53 AM 41.0 °F 38.0 °F 35.1 °F 79% 29.74 in 10.0 mi Variable 4.6 mph - 0.01 in   Overcast
3:53 AM 41.0 °F 36.4 °F 35.1 °F 79% 29.75 in 10.0 mi ESE 6.9 mph - N/A   Overcast
4:53 AM 41.0 °F 37.1 °F 34.0 °F 76% 29.74 in 10.0 mi Variable 5.8 mph - N/A   Overcast
5:53 AM 42.1 °F 36.1 °F 34.0 °F 73% 29.74 in 10.0 mi SSE 10.4 mph - 0.00 in Rain Light Rain
6:53 AM 42.1 °F 36.1 °F 33.1 °F 70% 29.74 in 10.0 mi South 10.4 mph - 0.01 in Rain Light Rain
7:53 AM 42.1 °F 38.4 °F 34.0 °F 73% 29.73 in 10.0 mi South 5.8 mph - 0.00 in Rain Light Rain
8:53 AM 42.1 °F 39.2 °F 34.0 °F 73% 29.74 in 10.0 mi Variable 4.6 mph - 0.01 in   Overcast
9:53 AM 42.1 °F 37.7 °F 33.1 °F 70% 29.72 in 10.0 mi SSE 6.9 mph - N/A   Overcast
10:53 AM 42.1 °F - 35.1 °F 76% 29.68 in 10.0 mi Calm Calm - 0.00 in   Overcast
11:53 AM 43.0 °F 41.3 °F 35.1 °F 74% 29.66 in 10.0 mi South 3.5 mph - N/A   Overcast
12:53 PM 45.0 °F - 33.1 °F 63% 29.64 in 10.0 mi Calm Calm - N/A   Mostly Cloudy
1:53 PM 44.1 °F - 36.0 °F 73% 29.63 in 10.0 mi Calm Calm - N/A   Overcast
2:53 PM 43.0 °F 40.3 °F 37.0 °F 80% 29.63 in 10.0 mi West 4.6 mph - N/A   Overcast
3:53 PM 43.0 °F - 36.0 °F 76% 29.64 in 10.0 mi Calm Calm - N/A   Overcast
4:14 PM 42.8 °F - 37.4 °F 81% 29.63 in 10.0 mi Calm Calm - 0.00 in Rain Light Rain
4:53 PM 42.1 °F - 37.0 °F 82% 29.65 in 10.0 mi Calm Calm - 0.00 in Rain Light Rain
5:53 PM 41.0 °F - 37.9 °F 89% 29.67 in 6.0 mi Calm Calm - 0.04 in Rain Light Rain
6:44 PM 39.2 °F - 37.4 °F 93% 29.67 in 6.0 mi Calm Calm - 0.04 in Rain Light Rain
6:53 PM 39.9 °F - 37.9 °F 93% 29.69 in 5.0 mi Calm Calm - 0.05 in Rain Light Rain
7:25 PM 39.2 °F - 37.4 °F 93% 29.69 in 5.0 mi Calm Calm - 0.04 in Rain Light Rain
7:32 PM 39.2 °F 37.0 °F 35.6 °F 87% 29.69 in 4.0 mi SSW 3.5 mph - 0.05 in Rain Light Rain
7:53 PM 39.0 °F - 34.0 °F 82% 29.71 in 6.0 mi Calm Calm - 0.08 in Rain Light Rain
8:26 PM 37.4 °F - 33.8 °F 87% 29.71 in 5.0 mi Calm Calm - 0.04 in Rain Light Rain
8:49 PM 37.4 °F - 33.8 °F 87% 29.72 in 6.0 mi Calm Calm - 0.07 in Rain Light Rain
8:53 PM 37.9 °F - 34.0 °F 86% 29.73 in 7.0 mi Calm Calm - 0.08 in Rain Light Rain
9:21 PM 37.4 °F - 33.8 °F 87% 29.73 in 8.0 mi Calm Calm - 0.02 in Rain Light Rain
9:40 PM 37.4 °F - 33.8 °F 87% 29.74 in 7.0 mi Calm Calm - 0.03 in Rain Light Rain
9:53 PM 37.9 °F 35.5 °F 35.1 °F 89% 29.76 in 8.0 mi SSW 3.5 mph - 0.04 in Rain Light Rain
10:06 PM 37.4 °F 32.8 °F 35.6 °F 93% 29.75 in 8.0 mi South 5.8 mph - 0.01 in Rain Light Rain
10:27 PM 37.4 °F 32.1 °F 33.8 °F 87% 29.76 in 10.0 mi South 6.9 mph - 0.02 in Rain Light Rain
10:53 PM 37.0 °F 32.4 °F 34.0 °F 89% 29.79 in 10.0 mi South 5.8 mph - 0.02 in Rain Light Rain
11:14 PM 37.4 °F 33.8 °F 35.6 °F 93% 29.78 in 9.0 mi South 4.6 mph - 0.00 in   Overcast
11:53 PM 37.0 °F 31.6 °F 35.1 °F 93% 29.81 in 9.0 mi SSE 6.9 mph - 0.00 in   Overcast